Weather History for Nashville, TN

Change the Weather History Date:

Tuesday, October 8, 2013

  Actual Average Record
Temperature  
Mean Temperature 60 °F 63 °F  
Max Temperature 73 °F 74 °F 91 °F (1939)
Min Temperature 47 °F 52 °F 30 °F (1889)
Degree Days  
Heating Degree Days 5 4  
Month to date heating degree days 12 28  
Since 1 July heating degree days 14 52  
Cooling Degree Days 0 2  
Month to date cooling degree days 55 21  
Year to date cooling degree days 1699 1615  
Growing Degree Days 10 (Base 50)    
Moisture  
Dew Point 46 °F    
Average Humidity 62    
Maximum Humidity 86    
Minimum Humidity 38    
Precipitation  
Precipitation 0.00 in 0.09 in 2.93 in (1959)
Month to date precipitation 1.08 0.80  
Year to date precipitation 43.11 36.46  
Snow  
Snow 0.00 in 0.00 in 0.00 in (2002)
Month to date snowfall 0.0 0.0  
Since 1 July snowfall 0.0 0.0  
Since 1 September snowfall 0.0 0.0  
Snow Depth 0.00 in    
Sea Level Pressure  
Sea Level Pressure 30.13 in    
Wind  
Wind Speed 7 mph (NE)    
Max Wind Speed 17 mph    
Max Gust Speed 22 mph    
Visibility 10 miles    
Events      
T = Trace of Precipitation, MM = Missing Value Source: NWS Daily Summary

Daily Weather History Graph

Daily Weather History Graph

Search for Another Location

Airport:

Trip Planner

Search our weather history database for the weather conditions in past years. The results will help you decide how hot, cold, wet, or windy it might be!

Date:

Astronomy

Oct. 08, 2013 Rise Set
Actual Time 6:47 AM CDT 6:20 PM CDT
Civil Twilight 6:22 AM CDT 6:45 PM CDT
Nautical Twilight 5:52 AM CDT 7:15 PM CDT
Astronomical Twilight 5:22 AM CDT 7:45 PM CDT
Moon 10:34 AM CDT (10/8) 9:03 PM CDT (10/8)
Length of Visible Light 12h 23m
Length of Day
11h 32m
Waxing Crescent, 16% of the Moon is Illuminated
Oct 8
Waxing Crescent
Oct 11
First Quarter
Oct 18
Full
Oct 26
Last Quarter
Nov 3
New

Hourly Weather History & Observations

Time (CDT) Temp. Dew Point Humidity Pressure Visibility Wind Dir Wind Speed Gust Speed Precip Events Conditions
12:53 AM 51.1 °F 46.0 °F 83% 30.12 in 10.0 mi North 4.6 mph - N/A   Clear
1:53 AM 51.1 °F 46.0 °F 83% 30.13 in 10.0 mi North 4.6 mph - N/A   Clear
2:53 AM 48.9 °F 45.0 °F 86% 30.13 in 10.0 mi North 3.5 mph - N/A   Clear
3:53 AM 48.9 °F 45.0 °F 86% 30.12 in 10.0 mi NNE 3.5 mph - N/A   Clear
4:53 AM 50.0 °F 45.0 °F 83% 30.12 in 10.0 mi North 3.5 mph - N/A   Clear
5:53 AM 48.9 °F 45.0 °F 86% 30.14 in 10.0 mi North 5.8 mph - N/A   Clear
6:53 AM 48.9 °F 45.0 °F 86% 30.16 in 10.0 mi NE 4.6 mph - N/A   Clear
7:53 AM 53.1 °F 46.0 °F 77% 30.17 in 10.0 mi NE 9.2 mph - N/A   Clear
8:53 AM 57.0 °F 46.0 °F 67% 30.17 in 10.0 mi ENE 13.8 mph - N/A   Clear
9:53 AM 61.0 °F 45.0 °F 56% 30.17 in 10.0 mi ENE 13.8 mph - N/A   Clear
10:53 AM 64.9 °F 45.0 °F 48% 30.17 in 10.0 mi NE 13.8 mph 20.7 mph N/A   Clear
11:53 AM 66.9 °F 44.1 °F 44% 30.15 in 10.0 mi NNE 10.4 mph 19.6 mph N/A   Clear
12:53 PM 69.1 °F 45.0 °F 42% 30.13 in 10.0 mi NE 9.2 mph 18.4 mph N/A   Clear
1:53 PM 71.1 °F 44.1 °F 38% 30.11 in 10.0 mi NE 9.2 mph - N/A   Partly Cloudy
2:53 PM 72.0 °F 46.0 °F 40% 30.11 in 10.0 mi NNE 10.4 mph - N/A   Partly Cloudy
3:53 PM 73.0 °F 46.0 °F 38% 30.10 in 10.0 mi NE 8.1 mph - N/A   Partly Cloudy
4:53 PM 71.1 °F 46.0 °F 41% 30.10 in 10.0 mi East 8.1 mph - N/A   Partly Cloudy
5:53 PM 69.1 °F 46.0 °F 44% 30.11 in 10.0 mi NE 8.1 mph - N/A   Clear
6:53 PM 64.0 °F 46.9 °F 54% 30.12 in 10.0 mi NE 5.8 mph - N/A   Partly Cloudy
7:53 PM 62.1 °F 48.0 °F 60% 30.12 in 10.0 mi NE 5.8 mph - N/A   Clear
8:53 PM 61.0 °F 48.9 °F 64% 30.14 in 10.0 mi NE 3.5 mph - N/A   Clear
9:53 PM 62.1 °F 48.9 °F 62% 30.14 in 10.0 mi NE 3.5 mph - N/A   Mostly Cloudy
10:53 PM 57.9 °F 50.0 °F 75% 30.13 in 10.0 mi NE 5.8 mph - N/A   Partly Cloudy
11:53 PM 59.0 °F 50.0 °F 72% 30.12 in 10.0 mi North 4.6 mph - N/A   Mostly Cloudy